Weather History for Champaign, IL

Change the Weather History Date:

Thursday, October 31, 2013

  Actual Average Record
Temperature  
Mean Temperature 56 °F 48 °F  
Max Temperature 65 °F 59 °F 75 °F (1999)
Min Temperature 46 °F 38 °F 26 °F (1996)
Degree Days  
Heating Degree Days 9 17  
Month to date heating degree days 349 369  
Since 1 July heating degree days 392 461  
Cooling Degree Days 0 0  
Month to date cooling degree days 45 19  
Year to date cooling degree days 1067 944  
Growing Degree Days 6 (Base 50)    
Moisture  
Dew Point 58 °F    
Average Humidity 93    
Maximum Humidity 100    
Minimum Humidity 86    
Precipitation  
Precipitation 1.62 in 0.09 in 1.62 in (2013)
Month to date precipitation 4.00 3.14  
Year to date precipitation 28.76 33.70  
Sea Level Pressure  
Sea Level Pressure 29.57 in    
Wind  
Wind Speed 17 mph (SW)    
Max Wind Speed 31 mph    
Max Gust Speed 39 mph    
Visibility 7 miles    
Events Rain    
T = Trace of Precipitation, MM = Missing Value Source: NWS Daily Summary

Daily Weather History Graph

Daily Weather History Graph

Search for Another Location

Airport:

Trip Planner

Search our weather history database for the weather conditions in past years. The results will help you decide how hot, cold, wet, or windy it might be!

Date:

Astronomy

Oct. 31, 2013 Rise Set
Actual Time 7:21 AM CDT 5:51 PM CDT
Civil Twilight 6:53 AM CDT 6:19 PM CDT
Nautical Twilight 6:21 AM CDT 6:51 PM CDT
Astronomical Twilight 5:49 AM CDT 7:22 PM CDT
Moon 4:10 AM CDT (10/31) 4:09 PM CDT (10/31)
Length of Visible Light 11h 26m
Length of Day
10h 30m
Waning Crescent, 10% of the Moon is Illuminated
Oct 31
Waning Crescent
Nov 3
New
Nov 9
First Quarter
Nov 17
Full
Nov 25
Last Quarter

Hourly Weather History & Observations

Time (CDT) Temp. Dew Point Humidity Pressure Visibility Wind Dir Wind Speed Gust Speed Precip Events Conditions
12:53 AM 64.0 °F 62.1 °F 93% 29.84 in - South 15.0 mph - 0.04 in Rain Light Rain
1:17 AM 64.4 °F 62.6 °F 94% 29.84 in - South 13.8 mph - 0.02 in Rain Rain
1:26 AM 64.4 °F 62.6 °F 94% 29.83 in - South 16.1 mph 21.9 mph 0.03 in Rain Rain
1:50 AM 64.4 °F 62.6 °F 94% 29.81 in - South 18.4 mph - 0.06 in Rain Rain
1:53 AM 63.0 °F 62.1 °F 97% 29.80 in - South 19.6 mph 26.5 mph 0.06 in Rain Rain
2:46 AM 62.6 °F 62.6 °F 100% 29.78 in - South 17.3 mph - 0.08 in Rain Rain
2:53 AM 64.0 °F 62.1 °F 93% 29.77 in - South 20.7 mph 27.6 mph 0.10 in Rain Rain
3:01 AM 64.4 °F 62.6 °F 94% 29.77 in - South 20.7 mph 26.5 mph 0.01 in Rain Rain
3:38 AM 64.4 °F 62.6 °F 94% 29.75 in - SSW 21.9 mph 28.8 mph 0.11 in Rain Heavy Rain
3:49 AM 64.4 °F 62.6 °F 94% 29.75 in - South 21.9 mph 28.8 mph 0.13 in Rain Rain
3:53 AM 63.0 °F 62.1 °F 97% 29.74 in - South 18.4 mph 28.8 mph 0.14 in Rain Light Rain
4:07 AM 62.6 °F 62.6 °F 100% 29.74 in - South 21.9 mph 26.5 mph 0.04 in Rain Rain
4:22 AM 62.6 °F 60.8 °F 94% 29.73 in - South 21.9 mph 29.9 mph 0.07 in Rain Light Rain
4:43 AM 62.6 °F 60.8 °F 94% 29.72 in - SSW 20.7 mph 28.8 mph 0.12 in Rain Light Rain
4:53 AM 63.0 °F 61.0 °F 93% 29.72 in - South 17.3 mph - 0.14 in Rain Light Rain
5:07 AM 62.6 °F 60.8 °F 94% 29.72 in - South 15.0 mph - 0.02 in Rain Light Rain
5:53 AM 62.1 °F 61.0 °F 96% 29.71 in 5.0 mi South 10.4 mph - 0.10 in Rain Heavy Rain
5:56 AM 62.6 °F 60.8 °F 94% 29.71 in 5.0 mi South 10.4 mph - 0.00 in Rain Heavy Rain
6:28 AM 62.6 °F 62.6 °F 100% 29.70 in 3.0 mi South 17.3 mph - 0.06 in Rain Heavy Rain
6:53 AM 62.1 °F 61.0 °F 96% 29.68 in 3.0 mi SSW 18.4 mph - 0.17 in Rain Rain
7:53 AM 63.0 °F 61.0 °F 93% 29.66 in 5.0 mi SSW 17.3 mph 24.2 mph 0.34 in Rain Rain
8:28 AM 62.6 °F 60.8 °F 94% 29.65 in 5.0 mi SSW 12.7 mph - 0.10 in Rain Rain
8:38 AM 62.6 °F 60.8 °F 94% 29.65 in 5.0 mi SSW 10.4 mph - 0.12 in Rain Rain
8:53 AM 63.0 °F 62.1 °F 97% 29.64 in 3.0 mi SSW 12.7 mph - 0.14 in Rain Rain
9:53 AM 62.1 °F 61.0 °F 96% 29.61 in 3.0 mi South 20.7 mph 26.5 mph 0.09 in Rain Rain
10:53 AM 61.0 °F 59.0 °F 93% 29.56 in 3.0 mi South 19.6 mph 29.9 mph 0.07 in Rain Light Rain
11:53 AM 61.0 °F 59.0 °F 93% 29.52 in 4.0 mi South 20.7 mph - 0.06 in Rain Light Rain
12:30 PM 60.8 °F 59.0 °F 94% 29.48 in 2.0 mi South 19.6 mph 26.5 mph 0.04 in Rain Light Rain
12:53 PM 61.0 °F 60.1 °F 97% 29.45 in 2.0 mi South 21.9 mph 28.8 mph 0.06 in Rain Light Rain
1:17 PM 62.6 °F 60.8 °F 94% 29.43 in 3.0 mi South 21.9 mph 29.9 mph 0.02 in   Overcast
1:53 PM 62.1 °F 60.1 °F 93% 29.39 in 5.0 mi South 20.7 mph 28.8 mph 0.04 in   Overcast
2:53 PM 63.0 °F 61.0 °F 93% 29.36 in 7.0 mi South 18.4 mph 26.5 mph 0.01 in   Overcast
3:53 PM 64.9 °F 62.1 °F 90% 29.34 in 7.0 mi SSW 19.6 mph 27.6 mph N/A   Overcast
4:00 PM 64.4 °F 62.6 °F 94% 29.35 in 10.0 mi SSW 20.7 mph 27.6 mph N/A   Overcast
4:24 PM 64.4 °F 60.8 °F 88% 29.34 in 10.0 mi SW 20.7 mph 27.6 mph 0.00 in Rain Light Rain
4:53 PM 63.0 °F 61.0 °F 93% 29.34 in 10.0 mi WSW 17.3 mph 27.6 mph 0.00 in Rain Heavy Rain
5:22 PM 62.6 °F 59.0 °F 88% 29.33 in 10.0 mi West 11.5 mph - 0.01 in   Overcast
5:42 PM 60.8 °F 57.2 °F 88% 29.34 in 10.0 mi West 13.8 mph - 0.02 in Rain Light Rain
5:53 PM 60.1 °F 57.9 °F 93% 29.34 in 10.0 mi West 13.8 mph - 0.02 in   Overcast
6:38 PM 59.0 °F 55.4 °F 88% 29.36 in 10.0 mi West 15.0 mph 25.3 mph 0.01 in   Overcast
6:43 PM 59.0 °F 55.4 °F 88% 29.36 in 10.0 mi West 16.1 mph - 0.01 in Rain Light Rain
6:53 PM 59.0 °F 55.9 °F 90% 29.35 in 10.0 mi West 13.8 mph - 0.02 in Rain Light Rain
7:53 PM 54.0 °F 52.0 °F 93% 29.40 in 8.0 mi WNW 17.3 mph 21.9 mph 0.01 in Rain Light Rain
7:58 PM 53.6 °F 51.8 °F 94% 29.41 in 8.0 mi WNW 16.1 mph - 0.00 in Rain Light Rain
8:21 PM 53.6 °F 51.8 °F 94% 29.43 in 8.0 mi West 13.8 mph 25.3 mph 0.01 in Rain Light Rain
8:29 PM 53.6 °F 51.8 °F 94% 29.44 in 8.0 mi West 12.7 mph - 0.01 in Rain Light Rain
8:53 PM 52.0 °F 48.9 °F 89% 29.43 in 10.0 mi WNW 12.7 mph - 0.02 in Rain Light Rain
9:53 PM 51.1 °F 48.9 °F 92% 29.47 in 10.0 mi West 15.0 mph - 0.01 in Rain Light Rain
10:10 PM 50.0 °F 48.2 °F 94% 29.48 in 10.0 mi West 19.6 mph 24.2 mph 0.00 in Rain Light Rain
10:17 PM 50.0 °F 48.2 °F 94% 29.49 in 10.0 mi West 18.4 mph - 0.00 in Rain Light Rain
10:42 PM 48.2 °F 46.4 °F 93% 29.50 in 10.0 mi West 17.3 mph 29.9 mph 0.01 in   Overcast
10:53 PM 48.9 °F 46.0 °F 90% 29.51 in 10.0 mi West 16.1 mph 28.8 mph 0.01 in   Overcast
11:40 PM 48.2 °F 44.6 °F 87% 29.53 in - West 18.4 mph 28.8 mph 0.00 in   Overcast
11:53 PM 48.0 °F 45.0 °F 89% 29.54 in - West 17.3 mph 24.2 mph 0.01 in   Overcast